Weather History for Tuscaloosa, AL

Change the Weather History Date:

Thursday, September 12, 2013

  Actual Average Record
Temperature  
Mean Temperature 81 °F 77 °F  
Max Temperature 94 °F 88 °F 98 °F (1984)
Min Temperature 67 °F 66 °F 51 °F (1968)
Degree Days  
Heating Degree Days 0 0  
Month to date heating degree days 0 0  
Since 1 July heating degree days 0 0  
Cooling Degree Days 16    
Growing Degree Days 30 (Base 50)    
Moisture  
Dew Point 66 °F    
Average Humidity 65    
Maximum Humidity 93    
Minimum Humidity 36    
Precipitation  
Precipitation 0.00 in 0.13 in 1.63 in (1966)
Month to date precipitation 0.04 1.40  
Year to date precipitation 38.86 37.27  
Sea Level Pressure  
Sea Level Pressure 30.02 in    
Wind  
Wind Speed 1 mph (WNW)    
Max Wind Speed 9 mph    
Max Gust Speed 14 mph    
Visibility 8 miles    
Events      
T = Trace of Precipitation, MM = Missing Value Source: NWS Daily Summary

Daily Weather History Graph

Daily Weather History Graph

Search for Another Location

Airport:

Trip Planner

Search our weather history database for the weather conditions in past years. The results will help you decide how hot, cold, wet, or windy it might be!

Date:

Astronomy

Sep. 12, 2013 Rise Set
Actual Time 6:32 AM CDT 7:00 PM CDT
Civil Twilight 6:07 AM CDT 7:25 PM CDT
Nautical Twilight 5:38 AM CDT 7:54 PM CDT
Astronomical Twilight 5:08 AM CDT 8:24 PM CDT
Moon 1:39 PM CDT (9/12) No Moon Set
Length of Visible Light 13h 18m
Length of Day
12h 28m
Waxing Crescent, 50% of the Moon is Illuminated
Sep 12
Waxing Crescent
Sep 12
First Quarter
Sep 19
Full
Sep 26
Last Quarter
Oct 4
New

Hourly Weather History & Observations

Time (CDT) Temp. Heat Index Dew Point Humidity Pressure Visibility Wind Dir Wind Speed Gust Speed Precip Events Conditions
12:53 AM 72.0 °F - 69.1 °F 91% 30.07 in 7.0 mi Calm Calm - N/A   Clear
1:53 AM 71.1 °F - 66.9 °F 87% 30.07 in 7.0 mi Calm Calm - N/A   Clear
2:53 AM 70.0 °F - 66.9 °F 90% 30.07 in 5.0 mi Calm Calm - N/A   Clear
3:53 AM 69.1 °F - 66.0 °F 90% 30.07 in 6.0 mi Calm Calm - N/A   Clear
4:53 AM 68.0 °F - 64.9 °F 90% 30.08 in 5.0 mi Calm Calm - N/A   Clear
5:53 AM 68.0 °F - 64.9 °F 90% 30.08 in 4.0 mi Calm Calm - N/A   Clear
6:53 AM 68.0 °F - 64.9 °F 90% 30.09 in 4.0 mi Calm Calm - N/A   Clear
7:53 AM 73.0 °F - 68.0 °F 84% 30.09 in 5.0 mi Calm Calm - N/A   Haze
8:53 AM 78.1 °F - 69.1 °F 74% 30.09 in 7.0 mi Calm Calm - N/A   Clear
9:53 AM 82.9 °F 85.4 °F 66.9 °F 58% 30.09 in 8.0 mi Calm Calm - N/A   Clear
10:53 AM 86.0 °F 89.4 °F 68.0 °F 55% 30.08 in 9.0 mi Variable 3.5 mph - N/A   Clear
11:53 AM 91.9 °F 93.3 °F 64.0 °F 39% 30.06 in 10.0 mi NNE 4.6 mph - N/A   Clear
12:53 PM 91.0 °F 91.5 °F 62.1 °F 38% 30.04 in 10.0 mi Calm Calm - N/A   Mostly Cloudy
1:53 PM 93.0 °F 93.8 °F 62.1 °F 36% 30.01 in 10.0 mi Calm Calm - N/A   Partly Cloudy
2:53 PM 91.0 °F 90.5 °F 60.1 °F 35% 29.97 in 10.0 mi Calm Calm - N/A   Clear
3:53 PM 93.0 °F 94.2 °F 63.0 °F 37% 29.94 in 10.0 mi SW 6.9 mph - N/A   Clear
4:53 PM 91.9 °F 92.5 °F 62.1 °F 37% 29.94 in 10.0 mi Variable 5.8 mph - N/A   Clear
5:53 PM 90.0 °F 90.6 °F 63.0 °F 40% 29.93 in 10.0 mi SSW 5.8 mph - N/A   Clear
6:53 PM 84.9 °F 87.1 °F 66.0 °F 53% 29.93 in 10.0 mi Calm Calm - N/A   Clear
7:53 PM 80.1 °F 82.7 °F 68.0 °F 67% 29.94 in 8.0 mi Calm Calm - N/A   Clear
8:53 PM 75.9 °F - 70.0 °F 82% 29.95 in 8.0 mi Calm Calm - N/A   Clear
9:53 PM 73.9 °F - 70.0 °F 87% 29.95 in 7.0 mi Calm Calm - N/A   Clear
10:53 PM 75.0 °F - 70.0 °F 84% 29.95 in 6.0 mi Calm Calm - N/A   Haze
11:53 PM 75.0 °F - 71.1 °F 87% 29.95 in 7.0 mi North 4.6 mph - N/A   Clear